Weather in Abottabad

Pakistan     34°10′25″N   73°14′16″E
temp.,
°C
wind,
m/s
gust,
m/s
humid.,
%
clouds,
%
prec.,
mm/h
press.,
hPa
HPBL,
m
18 january, mon
mon1823:00+7se11500 0.0 102022
02:00+6e115252 0.0 102022
05:00+5e225127 0.0 101922
08:00+6ese124767 0.0 102123
11:00+13nw113276 0.0 1021487
14:00+14wnw212928 0.0 1019957
17:00+10sw124914 0.0 101823
20:00+7e11510 0.0 101922
19 january, tue
tue1923:00+7e224829 0.0 101922
02:00+6e22436 0.0 101722
05:00+5e23383 0.0 101723
08:00+5e23370 0.0 101828
11:00+13ne11250 0.0 1017408
14:00+16wnw21200 0.0 10151255
17:00+11wsw11370 0.0 101522
20:00+8e11370 0.0 101722
20 january, wed
wed2023:00+7e22380 0.0 101822
02:00+5e23350 0.0 101822
05:00+5e33350 0.0 101725
08:00+5e33370 0.0 101934
11:00+13ne22240 0.0 1018367
14:00+15nnw22200 0.0 1016895
17:00+11w113216 0.0 101622
20:00+8ene223546 0.0 101922
21 january, thu
thu2123:00+6ene333744 0.0 102029
02:00+5ene333582 0.0 101932
05:00+4e332955 0.0 101931
08:00+4e332986 0.0 102042
11:00+12ene332293 0.0 1019249
14:00+16nne1118100 0.0 1016569
17:00+11ne0131100 0.0 101522
20:00+9e2229100 0.0 101722
22 january, fri
fri2223:00+8ese2228100 0.0 101723
02:00+7ese2325100 0.0 101726
05:00+6e2326100 0.0 101525
08:00+7e2230100 0.0 101627
11:00+14sw0121100 0.0 1016673
14:00+15wnw2223100 0.0 10141385
17:00+12wsw113695 0.0 101228
20:00+10ese1139100 0.0 101326